TimeEST,TemperatureF,Dew PointF,Humidity,Sea Level PressureIn,VisibilityMPH,Wind Direction,Wind SpeedMPH,Gust SpeedMPH,PrecipitationIn,Events,Conditions,WindDirDegrees,DateUTC
12:14 AM,24.8,17.6,74,30.06,10.0,WSW,15.0,23.0,N/A,,Mostly Cloudy,240,2012-11-13 05:14:00
12:35 AM,24.8,17.6,74,30.07,10.0,WSW,16.1,21.9,N/A,,Scattered Clouds,240,2012-11-13 05:35:00
12:54 AM,24.8,17.6,74,30.08,10.0,WSW,15.0,24.2,N/A,,Clear,240,2012-11-13 05:54:00
1:15 AM,24.8,17.6,74,30.09,10.0,WSW,16.1,-,N/A,,Clear,240,2012-11-13 06:15:00
1:34 AM,23.0,17.6,80,30.09,10.0,WSW,16.1,21.9,N/A,,Clear,240,2012-11-13 06:34:00
1:54 AM,23.0,17.6,80,30.10,10.0,WSW,15.0,23.0,N/A,,Clear,240,2012-11-13 06:54:00
2:15 AM,23.0,17.6,80,30.10,10.0,WSW,15.0,19.6,N/A,,Clear,240,2012-11-13 07:15:00
2:34 AM,23.0,17.6,80,30.11,10.0,WSW,13.8,-,N/A,,Clear,240,2012-11-13 07:34:00
2:55 AM,23.0,17.6,80,30.12,10.0,WSW,16.1,19.6,N/A,,Clear,240,2012-11-13 07:55:00
3:14 AM,23.0,17.6,80,30.13,10.0,WSW,15.0,-,N/A,,Clear,240,2012-11-13 08:14:00
3:54 AM,23.0,17.6,80,30.14,10.0,WSW,13.8,18.4,N/A,,Clear,240,2012-11-13 08:54:00
4:15 AM,23.0,19.4,86,30.15,10.0,WSW,13.8,18.4,N/A,,Clear,240,2012-11-13 09:15:00
4:34 AM,24.8,19.4,80,30.15,10.0,WSW,13.8,-,N/A,,Mostly Cloudy,240,2012-11-13 09:34:00
4:55 AM,24.8,19.4,80,30.16,10.0,WSW,16.1,20.7,N/A,,Mostly Cloudy,250,2012-11-13 09:55:00
5:14 AM,24.8,19.4,80,30.17,10.0,WSW,13.8,20.7,N/A,,Scattered Clouds,240,2012-11-13 10:14:00
5:35 AM,24.8,19.4,80,30.18,10.0,WSW,15.0,-,N/A,,Mostly Cloudy,240,2012-11-13 10:35:00
5:55 AM,24.8,19.4,80,30.19,10.0,WSW,11.5,-,N/A,,Overcast,240,2012-11-13 10:55:00
6:14 AM,24.8,21.2,86,30.20,10.0,WSW,11.5,16.1,N/A,,Overcast,250,2012-11-13 11:14:00
6:35 AM,26.6,21.2,80,30.21,5.0,WSW,12.7,-,N/A,Snow,Snow,240,2012-11-13 11:35:00
7:15 AM,26.6,21.2,80,30.23,2.0,WSW,11.5,17.3,N/A,Snow,Light Snow,240,2012-11-13 12:15:00
7:35 AM,24.8,21.2,86,30.24,1.0,WSW,12.7,-,N/A,Snow,Snow,240,2012-11-13 12:35:00
7:54 AM,24.8,23.0,93,30.25,1.0,WSW,10.4,18.4,N/A,Snow,Light Snow,250,2012-11-13 12:54:00
8:15 AM,26.6,23.0,86,30.25,2.5,WSW,10.4,-,N/A,Snow,Light Snow,240,2012-11-13 13:15:00
8:34 AM,24.8,23.0,93,30.26,5.0,WSW,10.4,-,N/A,Snow,Light Snow,250,2012-11-13 13:34:00
8:55 AM,26.6,24.8,93,30.27,1.8,West,10.4,-,N/A,Snow,Light Snow,260,2012-11-13 13:55:00
9:15 AM,28.4,24.8,86,30.29,10.0,WSW,6.9,-,N/A,Snow,Light Snow,250,2012-11-13 14:15:00
9:34 AM,28.4,24.8,86,30.29,10.0,WSW,10.4,-,N/A,,Scattered Clouds,250,2012-11-13 14:34:00
9:55 AM,30.2,24.8,80,30.30,10.0,West,11.5,-,N/A,,Clear,270,2012-11-13 14:55:00
10:15 AM,30.2,24.8,80,30.31,10.0,WSW,9.2,-,N/A,,Clear,250,2012-11-13 15:15:00
10:34 AM,32.0,26.6,80,30.32,10.0,West,10.4,-,N/A,,Clear,260,2012-11-13 15:34:00
10:55 AM,33.8,28.4,81,30.32,10.0,WNW,10.4,-,N/A,,Clear,290,2012-11-13 15:55:00
11:14 AM,33.8,28.4,81,30.33,10.0,West,9.2,-,N/A,,Clear,270,2012-11-13 16:14:00
11:34 AM,35.6,28.4,75,30.33,10.0,West,12.7,16.1,N/A,,Clear,280,2012-11-13 16:34:00
11:55 AM,37.4,28.4,70,30.33,10.0,West,11.5,-,N/A,,Clear,270,2012-11-13 16:55:00
12:14 PM,37.4,28.4,70,30.33,10.0,WNW,9.2,-,N/A,,Clear,300,2012-11-13 17:14:00
12:35 PM,37.4,28.4,70,30.33,10.0,West,6.9,-,N/A,,Scattered Clouds,270,2012-11-13 17:35:00
12:55 PM,37.4,28.4,70,30.33,10.0,SW,9.2,-,N/A,,Scattered Clouds,230,2012-11-13 17:55:00
1:14 PM,37.4,28.4,70,30.33,10.0,West,4.6,-,N/A,,Scattered Clouds,270,2012-11-13 18:14:00
1:55 PM,37.4,24.8,60,30.33,10.0,WSW,10.4,-,N/A,,Scattered Clouds,240,2012-11-13 18:55:00
2:14 PM,37.4,24.8,60,30.33,10.0,WSW,9.2,-,N/A,,Clear,240,2012-11-13 19:14:00
2:35 PM,39.2,24.8,56,30.34,10.0,SSW,9.2,-,N/A,,Clear,200,2012-11-13 19:35:00
2:54 PM,37.4,21.2,52,30.34,10.0,SW,11.5,-,N/A,,Clear,230,2012-11-13 19:54:00
3:14 PM,37.4,21.2,52,30.34,10.0,SW,6.9,-,N/A,,Clear,230,2012-11-13 20:14:00
3:35 PM,37.4,19.4,48,30.34,10.0,SSW,11.5,17.3,N/A,,Clear,210,2012-11-13 20:35:00
3:54 PM,37.4,21.2,52,30.35,10.0,SSW,13.8,-,N/A,,Clear,210,2012-11-13 20:54:00
4:15 PM,35.6,21.2,56,30.35,10.0,SW,11.5,-,N/A,,Clear,220,2012-11-13 21:15:00
4:35 PM,35.6,21.2,56,30.36,10.0,South,10.4,-,N/A,,Clear,190,2012-11-13 21:35:00
4:54 PM,33.8,23.0,65,30.36,10.0,South,10.4,-,N/A,,Clear,190,2012-11-13 21:54:00
5:15 PM,32.0,23.0,69,30.37,10.0,SSW,9.2,-,N/A,,Clear,200,2012-11-13 22:15:00
5:34 PM,30.2,24.8,80,30.38,10.0,South,5.8,-,N/A,,Clear,190,2012-11-13 22:34:00
5:54 PM,30.2,24.8,80,30.38,10.0,South,4.6,-,N/A,,Clear,190,2012-11-13 22:54:00
6:15 PM,28.4,24.8,86,30.39,10.0,SSW,4.6,-,N/A,,Clear,200,2012-11-13 23:15:00
6:34 PM,28.4,24.8,86,30.39,10.0,SSW,4.6,-,N/A,,Clear,200,2012-11-13 23:34:00
6:55 PM,28.4,24.8,86,30.39,10.0,SSW,3.5,-,N/A,,Clear,210,2012-11-13 23:55:00
7:15 PM,30.2,24.8,80,30.40,10.0,SSW,4.6,-,N/A,,Clear,210,2012-11-14 00:15:00
7:34 PM,28.4,24.8,86,30.40,10.0,SSW,4.6,-,N/A,,Clear,210,2012-11-14 00:34:00
7:55 PM,28.4,24.8,86,30.40,10.0,South,3.5,-,N/A,,Clear,190,2012-11-14 00:55:00
8:14 PM,28.4,24.8,86,30.40,10.0,South,3.5,-,N/A,,Clear,190,2012-11-14 01:14:00
8:34 PM,28.4,24.8,86,30.40,10.0,SSW,3.5,-,N/A,,Scattered Clouds,210,2012-11-14 01:34:00
8:55 PM,28.4,24.8,86,30.40,10.0,SSW,3.5,-,N/A,,Scattered Clouds,210,2012-11-14 01:55:00
9:14 PM,28.4,24.8,86,30.40,10.0,SSW,3.5,-,N/A,,Clear,200,2012-11-14 02:14:00
9:35 PM,28.4,24.8,86,30.40,10.0,South,4.6,-,N/A,,Clear,190,2012-11-14 02:35:00
9:54 PM,26.6,23.0,86,30.40,10.0,SSW,5.8,-,N/A,,Scattered Clouds,210,2012-11-14 02:54:00
10:14 PM,28.4,24.8,86,30.41,10.0,SSW,4.6,-,N/A,,Scattered Clouds,200,2012-11-14 03:14:00
10:35 PM,28.4,24.8,86,30.41,10.0,SW,6.9,-,N/A,,Scattered Clouds,220,2012-11-14 03:35:00
10:54 PM,28.4,24.8,86,30.42,10.0,SW,5.8,-,N/A,,Scattered Clouds,220,2012-11-14 03:54:00
11:15 PM,28.4,24.8,86,30.41,10.0,SSW,4.6,-,N/A,,Scattered Clouds,210,2012-11-14 04:15:00
11:35 PM,28.4,24.8,86,30.41,10.0,SW,4.6,-,N/A,,Mostly Cloudy,230,2012-11-14 04:35:00
11:54 PM,28.4,26.6,93,30.41,10.0,Calm,Calm,-,N/A,,Mostly Cloudy,0,2012-11-14 04:54:00